This is the latest recevied weather packets stored in our database for station/object NC4J. If no packets are shown the sender has not sent any weather packets the latest 10 day(s).
| Time | Temp. | Humidity | Pressure | Rain* | Wind** | Luminosity | Snow |
|---|---|---|---|---|---|---|---|
| 1777652054 | 16.11° C | 45% | 1015.5 hPa | 0 mm | - | 149 W/m² | - |
| 1777651750 | 16.11° C | 43% | 1015.8 hPa | 0 mm | - | 145 W/m² | - |
| 1777651447 | 15.56° C | 45% | 1015.7 hPa | 0 mm | - | 481 W/m² | - |
| 1777649933 | 14.44° C | 51% | 1016.1 hPa | 0 mm | - | 55 W/m² | - |
| 1777649630 | 14.44° C | 48% | 1016.1 hPa | 0 mm | - | 42 W/m² | - |
| 1777649325 | 14.44° C | 49% | 1016 hPa | 0 mm | - | 80 W/m² | - |
| 1777649023 | 14.44° C | 50% | 1016.1 hPa | 0 mm | - | 48 W/m² | - |
| 1777648721 | 13.89° C | 53% | 1016.4 hPa | 0 mm | - | 63 W/m² | - |
| 1777648416 | 13.89° C | 48% | 1016.1 hPa | 0 mm | - | 56 W/m² | - |
| 1777648113 | 14.44° C | 53% | 1015.8 hPa | 0 mm | - | 42 W/m² | - |
| 1777647810 | 13.89° C | 52% | 1015.6 hPa | 0 mm | - | 73 W/m² | - |
| 1777647505 | 13.89° C | 53% | 1015.6 hPa | 0 mm | - | 64 W/m² | - |
| 1777647203 | 13.33° C | 54% | 1015.7 hPa | 0 mm | - | 107 W/m² | - |
| 1777646292 | 13.33° C | 54% | 1016.1 hPa | 0 mm | - | 40 W/m² | - |
| 1777645989 | 13.33° C | 55% | 1016 hPa | 0 mm | - | 38 W/m² | - |
| 1777645686 | 12.78° C | 56% | 1016 hPa | 0 mm | - | 48 W/m² | - |
| 1777645382 | 12.78° C | 57% | 1016 hPa | 0 mm | - | 37 W/m² | - |
| 1777645077 | 12.78° C | 57% | 1015.8 hPa | 0 mm | - | 34 W/m² | - |
| 1777644774 | 12.78° C | 56% | 1015.7 hPa | 0 mm | - | 61 W/m² | - |
| 1777644472 | 12.22° C | 55% | 1015.7 hPa | 0 mm | - | 53 W/m² | - |
| 1777644168 | 12.22° C | 57% | 1015.6 hPa | 0 mm | - | 84 W/m² | - |
| 1777643864 | 12.22° C | 56% | 1016 hPa | 0 mm | - | 58 W/m² | - |
| 1777643563 | 11.67° C | 57% | 1016 hPa | 0 mm | - | 96 W/m² | - |
| 1777643259 | 11.67° C | 58% | 1016 hPa | 0 mm | - | 43 W/m² | - |
| 1777642652 | 11.67° C | 56% | 1015.6 hPa | 0 mm | - | 37 W/m² | - |
* Rain latest hour (hover to see other rain measurements)
** Current wind speed in m/s (hover to see current wind gust speed)